owner,sensor,date,latitude,longitude,vertical_datum,sea_water_temperature,qcFlag 
WAVCIS,ioos:station:WAVCIS:CSI16:1,2010-09-01T00:00:00Z,29.4012,-89.0355,10.0,27.801,11111222 
WAVCIS,ioos:station:WAVCIS:CSI16:1,2010-09-01T00:15:00Z,29.4012,-89.0355,10.0,27.792,11111222 
WAVCIS,ioos:station:WAVCIS:CSI16:1,2010-09-01T00:30:00Z,29.4012,-89.0355,10.0,27.819,11111222 
WAVCIS,ioos:station:WAVCIS:CSI16:1,2010-09-01T00:45:00Z,29.4012,-89.0355,10.0,27.882,11111222 
WAVCIS,ioos:station:WAVCIS:CSI16:1,2010-09-01T01:00:00Z,29.4012,-89.0355,10.0,27.878,11111222 
WAVCIS,ioos:station:WAVCIS:CSI16:1,2010-09-01T01:15:00Z,29.4012,-89.0355,10.0,27.871,11111222 
WAVCIS,ioos:station:WAVCIS:CSI16:1,2010-09-01T01:30:00Z,29.4012,-89.0355,10.0,27.85,11111222 
WAVCIS,ioos:station:WAVCIS:CSI16:1,2010-09-01T01:45:00Z,29.4012,-89.0355,10.0,27.846,11111222 
WAVCIS,ioos:station:WAVCIS:CSI16:1,2010-09-01T02:00:00Z,29.4012,-89.0355,10.0,27.838,11111222 
WAVCIS,ioos:station:WAVCIS:CSI16:1,2010-09-01T02:15:00Z,29.4012,-89.0355,10.0,27.851,11111222 
WAVCIS,ioos:station:WAVCIS:CSI16:1,2010-09-01T02:30:00Z,29.4012,-89.0355,10.0,27.901,11111222 
WAVCIS,ioos:station:WAVCIS:CSI16:1,2010-09-01T02:45:00Z,29.4012,-89.0355,10.0,27.924,11111222 
WAVCIS,ioos:station:WAVCIS:CSI16:1,2010-09-01T03:00:00Z,29.4012,-89.0355,10.0,27.928,11111222 
WAVCIS,ioos:station:WAVCIS:CSI16:1,2010-09-01T03:15:00Z,29.4012,-89.0355,10.0,27.973,11111222 
WAVCIS,ioos:station:WAVCIS:CSI16:1,2010-09-01T03:30:00Z,29.4012,-89.0355,10.0,27.994,11111222 
WAVCIS,ioos:station:WAVCIS:CSI16:1,2010-09-01T03:45:00Z,29.4012,-89.0355,10.0,28.02,11111222 
WAVCIS,ioos:station:WAVCIS:CSI16:1,2010-09-01T04:00:00Z,29.4012,-89.0355,10.0,28.012,11111222 
WAVCIS,ioos:station:WAVCIS:CSI16:1,2010-09-01T04:15:00Z,29.4012,-89.0355,10.0,27.994,11111222 
WAVCIS,ioos:station:WAVCIS:CSI16:1,2010-09-01T04:30:00Z,29.4012,-89.0355,10.0,27.993,11111222 
WAVCIS,ioos:station:WAVCIS:CSI16:1,2010-09-01T04:45:00Z,29.4012,-89.0355,10.0,27.974,11111222 
WAVCIS,ioos:station:WAVCIS:CSI16:1,2010-09-01T05:00:00Z,29.4012,-89.0355,10.0,27.962,11111222 
WAVCIS,ioos:station:WAVCIS:CSI16:1,2010-09-01T05:15:00Z,29.4012,-89.0355,10.0,27.956,11111222 
WAVCIS,ioos:station:WAVCIS:CSI16:1,2010-09-01T05:30:00Z,29.4012,-89.0355,10.0,27.944,11111222 
WAVCIS,ioos:station:WAVCIS:CSI16:1,2010-09-01T05:45:00Z,29.4012,-89.0355,10.0,27.936,11111222 
WAVCIS,ioos:station:WAVCIS:CSI16:1,2010-09-01T06:00:00Z,29.4012,-89.0355,10.0,27.928,11111222 
WAVCIS,ioos:station:WAVCIS:CSI16:1,2010-09-01T06:15:00Z,29.4012,-89.0355,10.0,27.918,11111222 
WAVCIS,ioos:station:WAVCIS:CSI16:1,2010-09-01T06:30:00Z,29.4012,-89.0355,10.0,27.908,11111222 
WAVCIS,ioos:station:WAVCIS:CSI16:1,2010-09-01T06:45:00Z,29.4012,-89.0355,10.0,27.902,11111222 
WAVCIS,ioos:station:WAVCIS:CSI16:1,2010-09-01T07:00:00Z,29.4012,-89.0355,10.0,27.89,11111222 
WAVCIS,ioos:station:WAVCIS:CSI16:1,2010-09-01T07:15:00Z,29.4012,-89.0355,10.0,27.882,11111222 
WAVCIS,ioos:station:WAVCIS:CSI16:1,2010-09-01T07:30:00Z,29.4012,-89.0355,10.0,27.88,11111222 
WAVCIS,ioos:station:WAVCIS:CSI16:1,2010-09-01T07:45:00Z,29.4012,-89.0355,10.0,27.872,11111222 
WAVCIS,ioos:station:WAVCIS:CSI16:1,2010-09-01T08:00:00Z,29.4012,-89.0355,10.0,27.866,11111222 
WAVCIS,ioos:station:WAVCIS:CSI16:1,2010-09-01T08:15:00Z,29.4012,-89.0355,10.0,27.857,11111222 
WAVCIS,ioos:station:WAVCIS:CSI16:1,2010-09-01T08:30:00Z,29.4012,-89.0355,10.0,27.85,11111222 
WAVCIS,ioos:station:WAVCIS:CSI16:1,2010-09-01T08:45:00Z,29.4012,-89.0355,10.0,27.845,11111222 
WAVCIS,ioos:station:WAVCIS:CSI16:1,2010-09-01T09:00:00Z,29.4012,-89.0355,10.0,27.846,11111222 
WAVCIS,ioos:station:WAVCIS:CSI16:1,2010-09-01T09:15:00Z,29.4012,-89.0355,10.0,27.841,11111222 
WAVCIS,ioos:station:WAVCIS:CSI16:1,2010-09-01T09:30:00Z,29.4012,-89.0355,10.0,27.836,11111222 
WAVCIS,ioos:station:WAVCIS:CSI16:1,2010-09-01T09:45:00Z,29.4012,-89.0355,10.0,27.83,11111222 
WAVCIS,ioos:station:WAVCIS:CSI16:1,2010-09-01T10:00:00Z,29.4012,-89.0355,10.0,27.829,11111222 
WAVCIS,ioos:station:WAVCIS:CSI16:1,2010-09-01T10:15:00Z,29.4012,-89.0355,10.0,27.83,11111222 
WAVCIS,ioos:station:WAVCIS:CSI16:1,2010-09-01T10:30:00Z,29.4012,-89.0355,10.0,27.829,11111222 
WAVCIS,ioos:station:WAVCIS:CSI16:1,2010-09-01T10:45:00Z,29.4012,-89.0355,10.0,27.821,11111222 
WAVCIS,ioos:station:WAVCIS:CSI16:1,2010-09-01T11:00:00Z,29.4012,-89.0355,10.0,27.808,11111222 
WAVCIS,ioos:station:WAVCIS:CSI16:1,2010-09-01T11:15:00Z,29.4012,-89.0355,10.0,27.801,11111222 
WAVCIS,ioos:station:WAVCIS:CSI16:1,2010-09-01T11:30:00Z,29.4012,-89.0355,10.0,27.788,11111222 
WAVCIS,ioos:station:WAVCIS:CSI16:1,2010-09-01T11:45:00Z,29.4012,-89.0355,10.0,27.783,11111222 
WAVCIS,ioos:station:WAVCIS:CSI16:1,2010-09-01T12:00:00Z,29.4012,-89.0355,10.0,27.781,11111222 
WAVCIS,ioos:station:WAVCIS:CSI16:1,2010-09-01T12:15:00Z,29.4012,-89.0355,10.0,27.776,11111222 
WAVCIS,ioos:station:WAVCIS:CSI16:1,2010-09-01T12:30:00Z,29.4012,-89.0355,10.0,27.77,11111222 
WAVCIS,ioos:station:WAVCIS:CSI16:1,2010-09-01T12:45:00Z,29.4012,-89.0355,10.0,27.763,11111222 
WAVCIS,ioos:station:WAVCIS:CSI16:1,2010-09-01T13:00:00Z,29.4012,-89.0355,10.0,27.762,11111222 
WAVCIS,ioos:station:WAVCIS:CSI16:1,2010-09-01T13:15:00Z,29.4012,-89.0355,10.0,27.77,11111222 
WAVCIS,ioos:station:WAVCIS:CSI16:1,2010-09-01T13:30:00Z,29.4012,-89.0355,10.0,27.768,11111222 
WAVCIS,ioos:station:WAVCIS:CSI16:1,2010-09-01T13:45:00Z,29.4012,-89.0355,10.0,27.771,11111222 
WAVCIS,ioos:station:WAVCIS:CSI16:1,2010-09-01T14:00:00Z,29.4012,-89.0355,10.0,27.764,11111222 
WAVCIS,ioos:station:WAVCIS:CSI16:1,2010-09-01T14:15:00Z,29.4012,-89.0355,10.0,27.404,11111222 
WAVCIS,ioos:station:WAVCIS:CSI16:1,2010-09-01T14:30:00Z,29.4012,-89.0355,10.0,27.478,11111222 
WAVCIS,ioos:station:WAVCIS:CSI16:1,2010-09-01T14:45:00Z,29.4012,-89.0355,10.0,27.539,11111222 
WAVCIS,ioos:station:WAVCIS:CSI16:1,2010-09-01T15:00:00Z,29.4012,-89.0355,10.0,27.608,11111222 
WAVCIS,ioos:station:WAVCIS:CSI16:1,2010-09-01T15:15:00Z,29.4012,-89.0355,10.0,27.696,11111222 
WAVCIS,ioos:station:WAVCIS:CSI16:1,2010-09-01T15:30:00Z,29.4012,-89.0355,10.0,27.671,11111222 
WAVCIS,ioos:station:WAVCIS:CSI16:1,2010-09-01T15:45:00Z,29.4012,-89.0355,10.0,27.66,11111222 
WAVCIS,ioos:station:WAVCIS:CSI16:1,2010-09-01T16:00:00Z,29.4012,-89.0355,10.0,27.636,11111222 
WAVCIS,ioos:station:WAVCIS:CSI16:1,2010-09-01T16:15:00Z,29.4012,-89.0355,10.0,27.632,11111222 
WAVCIS,ioos:station:WAVCIS:CSI16:1,2010-09-01T16:30:00Z,29.4012,-89.0355,10.0,27.659,11111222 
WAVCIS,ioos:station:WAVCIS:CSI16:1,2010-09-01T16:45:00Z,29.4012,-89.0355,10.0,27.685,11111222 
WAVCIS,ioos:station:WAVCIS:CSI16:1,2010-09-01T17:00:00Z,29.4012,-89.0355,10.0,27.697,11111222 
WAVCIS,ioos:station:WAVCIS:CSI16:1,2010-09-01T17:15:00Z,29.4012,-89.0355,10.0,27.747,11111222 
WAVCIS,ioos:station:WAVCIS:CSI16:1,2010-09-01T17:30:00Z,29.4012,-89.0355,10.0,27.792,11111222 
WAVCIS,ioos:station:WAVCIS:CSI16:1,2010-09-01T17:45:00Z,29.4012,-89.0355,10.0,27.878,11111222 
WAVCIS,ioos:station:WAVCIS:CSI16:1,2010-09-01T18:00:00Z,29.4012,-89.0355,10.0,27.878,11111222 
WAVCIS,ioos:station:WAVCIS:CSI16:1,2010-09-01T18:15:00Z,29.4012,-89.0355,10.0,27.89,11111222 
WAVCIS,ioos:station:WAVCIS:CSI16:1,2010-09-01T18:30:00Z,29.4012,-89.0355,10.0,27.714,11111222 
WAVCIS,ioos:station:WAVCIS:CSI16:1,2010-09-01T18:45:00Z,29.4012,-89.0355,10.0,27.818,11111222 
WAVCIS,ioos:station:WAVCIS:CSI16:1,2010-09-01T19:00:00Z,29.4012,-89.0355,10.0,27.899,11111222 
WAVCIS,ioos:station:WAVCIS:CSI16:1,2010-09-01T19:15:00Z,29.4012,-89.0355,10.0,27.883,11111222 
WAVCIS,ioos:station:WAVCIS:CSI16:1,2010-09-01T19:30:00Z,29.4012,-89.0355,10.0,27.978,11111222 
WAVCIS,ioos:station:WAVCIS:CSI16:1,2010-09-01T19:45:00Z,29.4012,-89.0355,10.0,28.087,11111222 
WAVCIS,ioos:station:WAVCIS:CSI16:1,2010-09-01T20:00:00Z,29.4012,-89.0355,10.0,28.188,11111222 
WAVCIS,ioos:station:WAVCIS:CSI16:1,2010-09-01T20:15:00Z,29.4012,-89.0355,10.0,28.102,11111222 
WAVCIS,ioos:station:WAVCIS:CSI16:1,2010-09-01T20:30:00Z,29.4012,-89.0355,10.0,28.143,11111222 
WAVCIS,ioos:station:WAVCIS:CSI16:1,2010-09-01T20:45:00Z,29.4012,-89.0355,10.0,28.153,11111222 
WAVCIS,ioos:station:WAVCIS:CSI16:1,2010-09-01T21:00:00Z,29.4012,-89.0355,10.0,28.169,11111222 
WAVCIS,ioos:station:WAVCIS:CSI16:1,2010-09-01T21:15:00Z,29.4012,-89.0355,10.0,28.117,11111222 
WAVCIS,ioos:station:WAVCIS:CSI16:1,2010-09-01T21:30:00Z,29.4012,-89.0355,10.0,28.125,11111222 
WAVCIS,ioos:station:WAVCIS:CSI16:1,2010-09-01T21:45:00Z,29.4012,-89.0355,10.0,28.122,11111222 
WAVCIS,ioos:station:WAVCIS:CSI16:1,2010-09-01T22:00:00Z,29.4012,-89.0355,10.0,28.108,11111222 
WAVCIS,ioos:station:WAVCIS:CSI16:1,2010-09-01T22:15:00Z,29.4012,-89.0355,10.0,28.006,11111222 
WAVCIS,ioos:station:WAVCIS:CSI16:1,2010-09-01T22:30:00Z,29.4012,-89.0355,10.0,28.172,11111222 
WAVCIS,ioos:station:WAVCIS:CSI16:1,2010-09-01T22:45:00Z,29.4012,-89.0355,10.0,28.34,11111222 
WAVCIS,ioos:station:WAVCIS:CSI16:1,2010-09-01T23:00:00Z,29.4012,-89.0355,10.0,28.278,11111222 
WAVCIS,ioos:station:WAVCIS:CSI16:1,2010-09-01T23:15:00Z,29.4012,-89.0355,10.0,28.425,11111222 
WAVCIS,ioos:station:WAVCIS:CSI16:1,2010-09-01T23:30:00Z,29.4012,-89.0355,10.0,28.389,11111222 
WAVCIS,ioos:station:WAVCIS:CSI16:1,2010-09-01T23:45:00Z,29.4012,-89.0355,10.0,28.334,11111222 
WAVCIS,ioos:station:WAVCIS:CSI16:1,2010-09-02T00:00:00Z,29.4012,-89.0355,10.0,28.374,11111222 
WAVCIS,ioos:station:WAVCIS:CSI16:1,2010-09-02T00:15:00Z,29.4012,-89.0355,10.0,28.312,11111222 
WAVCIS,ioos:station:WAVCIS:CSI16:1,2010-09-02T00:30:00Z,29.4012,-89.0355,10.0,28.286,11111222 
WAVCIS,ioos:station:WAVCIS:CSI16:1,2010-09-02T00:45:00Z,29.4012,-89.0355,10.0,28.544,11111222 
WAVCIS,ioos:station:WAVCIS:CSI16:1,2010-09-02T01:00:00Z,29.4012,-89.0355,10.0,28.355,11111222 
WAVCIS,ioos:station:WAVCIS:CSI16:1,2010-09-02T01:15:00Z,29.4012,-89.0355,10.0,28.316,11111222 
WAVCIS,ioos:station:WAVCIS:CSI16:1,2010-09-02T01:30:00Z,29.4012,-89.0355,10.0,28.226,11111222 
WAVCIS,ioos:station:WAVCIS:CSI16:1,2010-09-02T01:45:00Z,29.4012,-89.0355,10.0,28.178,11111222 
WAVCIS,ioos:station:WAVCIS:CSI16:1,2010-09-02T02:00:00Z,29.4012,-89.0355,10.0,28.132,11111222 
WAVCIS,ioos:station:WAVCIS:CSI16:1,2010-09-02T02:15:00Z,29.4012,-89.0355,10.0,28.162,11111222 
WAVCIS,ioos:station:WAVCIS:CSI16:1,2010-09-02T02:30:00Z,29.4012,-89.0355,10.0,28.16,11111222 
WAVCIS,ioos:station:WAVCIS:CSI16:1,2010-09-02T02:45:00Z,29.4012,-89.0355,10.0,28.042,11111222 
WAVCIS,ioos:station:WAVCIS:CSI16:1,2010-09-02T03:00:00Z,29.4012,-89.0355,10.0,28.156,11111222 
WAVCIS,ioos:station:WAVCIS:CSI16:1,2010-09-02T03:15:00Z,29.4012,-89.0355,10.0,28.09,11111222 
WAVCIS,ioos:station:WAVCIS:CSI16:1,2010-09-02T03:30:00Z,29.4012,-89.0355,10.0,28.083,11111222 
WAVCIS,ioos:station:WAVCIS:CSI16:1,2010-09-02T03:45:00Z,29.4012,-89.0355,10.0,28.006,11111222 
WAVCIS,ioos:station:WAVCIS:CSI16:1,2010-09-02T04:00:00Z,29.4012,-89.0355,10.0,28.035,11111222 
WAVCIS,ioos:station:WAVCIS:CSI16:1,2010-09-02T04:15:00Z,29.4012,-89.0355,10.0,28.021,11111222 
WAVCIS,ioos:station:WAVCIS:CSI16:1,2010-09-02T04:30:00Z,29.4012,-89.0355,10.0,28.0,11111222 
WAVCIS,ioos:station:WAVCIS:CSI16:1,2010-09-02T04:45:00Z,29.4012,-89.0355,10.0,27.983,11111222 
WAVCIS,ioos:station:WAVCIS:CSI16:1,2010-09-02T05:00:00Z,29.4012,-89.0355,10.0,27.954,11111222 
WAVCIS,ioos:station:WAVCIS:CSI16:1,2010-09-02T05:15:00Z,29.4012,-89.0355,10.0,27.927,11111222 
WAVCIS,ioos:station:WAVCIS:CSI16:1,2010-09-02T05:30:00Z,29.4012,-89.0355,10.0,27.892,11111222 
WAVCIS,ioos:station:WAVCIS:CSI16:1,2010-09-02T05:45:00Z,29.4012,-89.0355,10.0,27.873,11111222 
WAVCIS,ioos:station:WAVCIS:CSI16:1,2010-09-02T06:00:00Z,29.4012,-89.0355,10.0,27.892,11111222 
WAVCIS,ioos:station:WAVCIS:CSI16:1,2010-09-02T06:15:00Z,29.4012,-89.0355,10.0,27.894,11111222 
WAVCIS,ioos:station:WAVCIS:CSI16:1,2010-09-02T06:30:00Z,29.4012,-89.0355,10.0,27.88,11111222 
WAVCIS,ioos:station:WAVCIS:CSI16:1,2010-09-02T06:45:00Z,29.4012,-89.0355,10.0,27.877,11111222 
WAVCIS,ioos:station:WAVCIS:CSI16:1,2010-09-02T07:00:00Z,29.4012,-89.0355,10.0,27.869,11111222 
WAVCIS,ioos:station:WAVCIS:CSI16:1,2010-09-02T07:15:00Z,29.4012,-89.0355,10.0,27.803,11111222 
WAVCIS,ioos:station:WAVCIS:CSI16:1,2010-09-02T07:30:00Z,29.4012,-89.0355,10.0,27.8,11111222 
WAVCIS,ioos:station:WAVCIS:CSI16:1,2010-09-02T07:45:00Z,29.4012,-89.0355,10.0,27.769,11111222 
WAVCIS,ioos:station:WAVCIS:CSI16:1,2010-09-02T08:00:00Z,29.4012,-89.0355,10.0,27.729,11111222 
WAVCIS,ioos:station:WAVCIS:CSI16:1,2010-09-02T08:15:00Z,29.4012,-89.0355,10.0,27.74,11111222 
WAVCIS,ioos:station:WAVCIS:CSI16:1,2010-09-02T08:30:00Z,29.4012,-89.0355,10.0,27.739,11111222 
WAVCIS,ioos:station:WAVCIS:CSI16:1,2010-09-02T08:45:00Z,29.4012,-89.0355,10.0,27.704,11111222 
WAVCIS,ioos:station:WAVCIS:CSI16:1,2010-09-02T09:00:00Z,29.4012,-89.0355,10.0,27.733,11111222 
WAVCIS,ioos:station:WAVCIS:CSI16:1,2010-09-02T09:15:00Z,29.4012,-89.0355,10.0,27.662,11111222 
WAVCIS,ioos:station:WAVCIS:CSI16:1,2010-09-02T09:30:00Z,29.4012,-89.0355,10.0,27.737,11111222 
WAVCIS,ioos:station:WAVCIS:CSI16:1,2010-09-02T09:45:00Z,29.4012,-89.0355,10.0,27.663,11111222 
WAVCIS,ioos:station:WAVCIS:CSI16:1,2010-09-02T10:00:00Z,29.4012,-89.0355,10.0,27.677,11111222 
WAVCIS,ioos:station:WAVCIS:CSI16:1,2010-09-02T10:15:00Z,29.4012,-89.0355,10.0,27.648,11111222 
WAVCIS,ioos:station:WAVCIS:CSI16:1,2010-09-02T10:30:00Z,29.4012,-89.0355,10.0,27.604,11111222 
WAVCIS,ioos:station:WAVCIS:CSI16:1,2010-09-02T10:45:00Z,29.4012,-89.0355,10.0,27.626,11111222 
WAVCIS,ioos:station:WAVCIS:CSI16:1,2010-09-02T11:00:00Z,29.4012,-89.0355,10.0,27.638,11111222 
WAVCIS,ioos:station:WAVCIS:CSI16:1,2010-09-02T11:15:00Z,29.4012,-89.0355,10.0,27.513,11111222 
WAVCIS,ioos:station:WAVCIS:CSI16:1,2010-09-02T11:30:00Z,29.4012,-89.0355,10.0,27.588,11111222 
WAVCIS,ioos:station:WAVCIS:CSI16:1,2010-09-02T11:45:00Z,29.4012,-89.0355,10.0,27.512,11111222 
WAVCIS,ioos:station:WAVCIS:CSI16:1,2010-09-02T12:00:00Z,29.4012,-89.0355,10.0,27.489,11111222 
WAVCIS,ioos:station:WAVCIS:CSI16:1,2010-09-02T12:15:00Z,29.4012,-89.0355,10.0,27.521,11111222 
WAVCIS,ioos:station:WAVCIS:CSI16:1,2010-09-02T12:30:00Z,29.4012,-89.0355,10.0,27.428,11111222 
WAVCIS,ioos:station:WAVCIS:CSI16:1,2010-09-02T12:45:00Z,29.4012,-89.0355,10.0,27.549,11111222 
WAVCIS,ioos:station:WAVCIS:CSI16:1,2010-09-02T13:00:00Z,29.4012,-89.0355,10.0,27.488,11111222 
WAVCIS,ioos:station:WAVCIS:CSI16:1,2010-09-02T13:15:00Z,29.4012,-89.0355,10.0,27.485,11111222 
WAVCIS,ioos:station:WAVCIS:CSI16:1,2010-09-02T13:30:00Z,29.4012,-89.0355,10.0,27.467,11111222 
WAVCIS,ioos:station:WAVCIS:CSI16:1,2010-09-02T13:45:00Z,29.4012,-89.0355,10.0,27.469,11111222 
WAVCIS,ioos:station:WAVCIS:CSI16:1,2010-09-02T14:00:00Z,29.4012,-89.0355,10.0,27.553,11111222 
WAVCIS,ioos:station:WAVCIS:CSI16:1,2010-09-02T14:15:00Z,29.4012,-89.0355,10.0,27.629,11111222 
WAVCIS,ioos:station:WAVCIS:CSI16:1,2010-09-02T14:30:00Z,29.4012,-89.0355,10.0,27.641,11111222 
WAVCIS,ioos:station:WAVCIS:CSI16:1,2010-09-02T14:45:00Z,29.4012,-89.0355,10.0,27.678,11111222 
WAVCIS,ioos:station:WAVCIS:CSI16:1,2010-09-02T15:00:00Z,29.4012,-89.0355,10.0,27.718,11111222 
WAVCIS,ioos:station:WAVCIS:CSI16:1,2010-09-02T15:15:00Z,29.4012,-89.0355,10.0,27.767,11111222 
WAVCIS,ioos:station:WAVCIS:CSI16:1,2010-09-02T15:30:00Z,29.4012,-89.0355,10.0,27.725,11111222 
WAVCIS,ioos:station:WAVCIS:CSI16:1,2010-09-02T15:45:00Z,29.4012,-89.0355,10.0,27.86,11111222 
WAVCIS,ioos:station:WAVCIS:CSI16:1,2010-09-02T16:00:00Z,29.4012,-89.0355,10.0,27.845,11111222 
WAVCIS,ioos:station:WAVCIS:CSI16:1,2010-09-02T16:15:00Z,29.4012,-89.0355,10.0,27.89,11111222 
WAVCIS,ioos:station:WAVCIS:CSI16:1,2010-09-02T16:30:00Z,29.4012,-89.0355,10.0,27.902,11111222 
WAVCIS,ioos:station:WAVCIS:CSI16:1,2010-09-02T16:45:00Z,29.4012,-89.0355,10.0,28.024,11111222 
WAVCIS,ioos:station:WAVCIS:CSI16:1,2010-09-02T17:00:00Z,29.4012,-89.0355,10.0,27.947,11111222 
WAVCIS,ioos:station:WAVCIS:CSI16:1,2010-09-02T17:15:00Z,29.4012,-89.0355,10.0,27.906,11111222 
WAVCIS,ioos:station:WAVCIS:CSI16:1,2010-09-02T17:30:00Z,29.4012,-89.0355,10.0,28.107,11111222 
WAVCIS,ioos:station:WAVCIS:CSI16:1,2010-09-02T17:45:00Z,29.4012,-89.0355,10.0,28.151,11111222 
WAVCIS,ioos:station:WAVCIS:CSI16:1,2010-09-02T18:00:00Z,29.4012,-89.0355,10.0,28.088,11111222 
WAVCIS,ioos:station:WAVCIS:CSI16:1,2010-09-02T18:15:00Z,29.4012,-89.0355,10.0,27.984,11111222 
WAVCIS,ioos:station:WAVCIS:CSI16:1,2010-09-02T18:30:00Z,29.4012,-89.0355,10.0,28.29,11111222 
WAVCIS,ioos:station:WAVCIS:CSI16:1,2010-09-02T18:45:00Z,29.4012,-89.0355,10.0,28.397,11111222 
WAVCIS,ioos:station:WAVCIS:CSI16:1,2010-09-02T19:00:00Z,29.4012,-89.0355,10.0,28.562,11111222 
WAVCIS,ioos:station:WAVCIS:CSI16:1,2010-09-02T19:15:00Z,29.4012,-89.0355,10.0,28.739,11111222 
WAVCIS,ioos:station:WAVCIS:CSI16:1,2010-09-02T19:30:00Z,29.4012,-89.0355,10.0,28.674,11111222 
WAVCIS,ioos:station:WAVCIS:CSI16:1,2010-09-02T19:45:00Z,29.4012,-89.0355,10.0,28.612,11111222 
WAVCIS,ioos:station:WAVCIS:CSI16:1,2010-09-02T20:00:00Z,29.4012,-89.0355,10.0,28.399,11111222 
WAVCIS,ioos:station:WAVCIS:CSI16:1,2010-09-02T20:15:00Z,29.4012,-89.0355,10.0,28.126,11111222 
WAVCIS,ioos:station:WAVCIS:CSI16:1,2010-09-02T20:30:00Z,29.4012,-89.0355,10.0,27.968,11111222 
WAVCIS,ioos:station:WAVCIS:CSI16:1,2010-09-02T20:45:00Z,29.4012,-89.0355,10.0,27.998,11111222 
WAVCIS,ioos:station:WAVCIS:CSI16:1,2010-09-02T21:00:00Z,29.4012,-89.0355,10.0,27.873,11111222 
WAVCIS,ioos:station:WAVCIS:CSI16:1,2010-09-02T21:15:00Z,29.4012,-89.0355,10.0,27.84,11111222 
WAVCIS,ioos:station:WAVCIS:CSI16:1,2010-09-02T21:30:00Z,29.4012,-89.0355,10.0,27.939,11111222 
WAVCIS,ioos:station:WAVCIS:CSI16:1,2010-09-02T21:45:00Z,29.4012,-89.0355,10.0,28.007,11111222 
WAVCIS,ioos:station:WAVCIS:CSI16:1,2010-09-02T22:00:00Z,29.4012,-89.0355,10.0,27.865,11111222 
WAVCIS,ioos:station:WAVCIS:CSI16:1,2010-09-02T22:15:00Z,29.4012,-89.0355,10.0,28.081,11111222 
WAVCIS,ioos:station:WAVCIS:CSI16:1,2010-09-02T22:30:00Z,29.4012,-89.0355,10.0,28.061,11111222 
WAVCIS,ioos:station:WAVCIS:CSI16:1,2010-09-02T22:45:00Z,29.4012,-89.0355,10.0,27.865,11111222 
WAVCIS,ioos:station:WAVCIS:CSI16:1,2010-09-02T23:00:00Z,29.4012,-89.0355,10.0,27.792,11111222 
WAVCIS,ioos:station:WAVCIS:CSI16:1,2010-09-02T23:15:00Z,29.4012,-89.0355,10.0,27.853,11111222 
WAVCIS,ioos:station:WAVCIS:CSI16:1,2010-09-02T23:30:00Z,29.4012,-89.0355,10.0,27.755,11111222 
WAVCIS,ioos:station:WAVCIS:CSI16:1,2010-09-02T23:45:00Z,29.4012,-89.0355,10.0,27.797,11111222 
WAVCIS,ioos:station:WAVCIS:CSI16:1,2010-09-03T00:00:00Z,29.4012,-89.0355,10.0,27.734,11111222 
WAVCIS,ioos:station:WAVCIS:CSI16:1,2010-09-03T00:15:00Z,29.4012,-89.0355,10.0,27.789,11111222 
WAVCIS,ioos:station:WAVCIS:CSI16:1,2010-09-03T00:30:00Z,29.4012,-89.0355,10.0,27.768,11111222 
WAVCIS,ioos:station:WAVCIS:CSI16:1,2010-09-03T00:45:00Z,29.4012,-89.0355,10.0,27.769,11111222 
WAVCIS,ioos:station:WAVCIS:CSI16:1,2010-09-03T01:00:00Z,29.4012,-89.0355,10.0,27.815,11111222 
WAVCIS,ioos:station:WAVCIS:CSI16:1,2010-09-03T01:15:00Z,29.4012,-89.0355,10.0,27.811,11111222 
WAVCIS,ioos:station:WAVCIS:CSI16:1,2010-09-03T01:30:00Z,29.4012,-89.0355,10.0,27.883,11111222 
WAVCIS,ioos:station:WAVCIS:CSI16:1,2010-09-03T01:45:00Z,29.4012,-89.0355,10.0,27.839,11111222 
WAVCIS,ioos:station:WAVCIS:CSI16:1,2010-09-03T02:00:00Z,29.4012,-89.0355,10.0,27.888,11111222 
WAVCIS,ioos:station:WAVCIS:CSI16:1,2010-09-03T02:15:00Z,29.4012,-89.0355,10.0,27.827,11111222 
WAVCIS,ioos:station:WAVCIS:CSI16:1,2010-09-03T02:30:00Z,29.4012,-89.0355,10.0,28.029,11111222 
WAVCIS,ioos:station:WAVCIS:CSI16:1,2010-09-03T02:45:00Z,29.4012,-89.0355,10.0,27.915,11111222 
WAVCIS,ioos:station:WAVCIS:CSI16:1,2010-09-03T03:00:00Z,29.4012,-89.0355,10.0,27.816,11111222 
WAVCIS,ioos:station:WAVCIS:CSI16:1,2010-09-03T03:15:00Z,29.4012,-89.0355,10.0,28.085,11111222 
WAVCIS,ioos:station:WAVCIS:CSI16:1,2010-09-03T03:30:00Z,29.4012,-89.0355,10.0,27.839,11111222 
WAVCIS,ioos:station:WAVCIS:CSI16:1,2010-09-03T03:45:00Z,29.4012,-89.0355,10.0,27.938,11111222 
WAVCIS,ioos:station:WAVCIS:CSI16:1,2010-09-03T04:00:00Z,29.4012,-89.0355,10.0,27.812,11111222 
WAVCIS,ioos:station:WAVCIS:CSI16:1,2010-09-03T04:15:00Z,29.4012,-89.0355,10.0,28.049,11111222 
WAVCIS,ioos:station:WAVCIS:CSI16:1,2010-09-03T04:30:00Z,29.4012,-89.0355,10.0,27.882,11111222 
WAVCIS,ioos:station:WAVCIS:CSI16:1,2010-09-03T04:45:00Z,29.4012,-89.0355,10.0,27.919,11111222 
WAVCIS,ioos:station:WAVCIS:CSI16:1,2010-09-03T05:00:00Z,29.4012,-89.0355,10.0,27.997,11111222 
WAVCIS,ioos:station:WAVCIS:CSI16:1,2010-09-03T05:15:00Z,29.4012,-89.0355,10.0,28.088,11111222 
WAVCIS,ioos:station:WAVCIS:CSI16:1,2010-09-03T05:30:00Z,29.4012,-89.0355,10.0,28.038,11111222 
WAVCIS,ioos:station:WAVCIS:CSI16:1,2010-09-03T05:45:00Z,29.4012,-89.0355,10.0,28.048,11111222 
WAVCIS,ioos:station:WAVCIS:CSI16:1,2010-09-03T06:00:00Z,29.4012,-89.0355,10.0,28.013,11111222 
WAVCIS,ioos:station:WAVCIS:CSI16:1,2010-09-03T06:15:00Z,29.4012,-89.0355,10.0,28.0,11111222 
WAVCIS,ioos:station:WAVCIS:CSI16:1,2010-09-03T06:30:00Z,29.4012,-89.0355,10.0,28.004,11111222 
WAVCIS,ioos:station:WAVCIS:CSI16:1,2010-09-03T06:45:00Z,29.4012,-89.0355,10.0,27.966,11111222 
WAVCIS,ioos:station:WAVCIS:CSI16:1,2010-09-03T07:00:00Z,29.4012,-89.0355,10.0,27.957,11111222 
WAVCIS,ioos:station:WAVCIS:CSI16:1,2010-09-03T07:15:00Z,29.4012,-89.0355,10.0,27.973,11111222 
WAVCIS,ioos:station:WAVCIS:CSI16:1,2010-09-03T07:30:00Z,29.4012,-89.0355,10.0,27.96,11111222 
WAVCIS,ioos:station:WAVCIS:CSI16:1,2010-09-03T07:45:00Z,29.4012,-89.0355,10.0,27.953,11111222 
WAVCIS,ioos:station:WAVCIS:CSI16:1,2010-09-03T08:00:00Z,29.4012,-89.0355,10.0,27.94,11111222 
WAVCIS,ioos:station:WAVCIS:CSI16:1,2010-09-03T08:15:00Z,29.4012,-89.0355,10.0,27.931,11111222 
WAVCIS,ioos:station:WAVCIS:CSI16:1,2010-09-03T08:30:00Z,29.4012,-89.0355,10.0,27.936,11111222 
WAVCIS,ioos:station:WAVCIS:CSI16:1,2010-09-03T08:45:00Z,29.4012,-89.0355,10.0,27.926,11111222 
WAVCIS,ioos:station:WAVCIS:CSI16:1,2010-09-03T09:00:00Z,29.4012,-89.0355,10.0,27.911,11111222 
WAVCIS,ioos:station:WAVCIS:CSI16:1,2010-09-03T09:15:00Z,29.4012,-89.0355,10.0,27.897,11111222 
WAVCIS,ioos:station:WAVCIS:CSI16:1,2010-09-03T09:30:00Z,29.4012,-89.0355,10.0,27.892,11111222 
WAVCIS,ioos:station:WAVCIS:CSI16:1,2010-09-03T09:45:00Z,29.4012,-89.0355,10.0,27.889,11111222 
WAVCIS,ioos:station:WAVCIS:CSI16:1,2010-09-03T10:00:00Z,29.4012,-89.0355,10.0,27.875,11111222 
WAVCIS,ioos:station:WAVCIS:CSI16:1,2010-09-03T10:15:00Z,29.4012,-89.0355,10.0,27.85,11111222 
WAVCIS,ioos:station:WAVCIS:CSI16:1,2010-09-03T10:30:00Z,29.4012,-89.0355,10.0,27.855,11111222 
WAVCIS,ioos:station:WAVCIS:CSI16:1,2010-09-03T10:45:00Z,29.4012,-89.0355,10.0,27.836,11111222 
WAVCIS,ioos:station:WAVCIS:CSI16:1,2010-09-03T11:00:00Z,29.4012,-89.0355,10.0,27.818,11111222 
WAVCIS,ioos:station:WAVCIS:CSI16:1,2010-09-03T11:15:00Z,29.4012,-89.0355,10.0,27.803,11111222 
WAVCIS,ioos:station:WAVCIS:CSI16:1,2010-09-03T11:30:00Z,29.4012,-89.0355,10.0,27.804,11111222 
WAVCIS,ioos:station:WAVCIS:CSI16:1,2010-09-03T11:45:00Z,29.4012,-89.0355,10.0,27.781,11111222 
WAVCIS,ioos:station:WAVCIS:CSI16:1,2010-09-03T12:00:00Z,29.4012,-89.0355,10.0,27.788,11111222 
WAVCIS,ioos:station:WAVCIS:CSI16:1,2010-09-03T12:15:00Z,29.4012,-89.0355,10.0,27.763,11111222 
WAVCIS,ioos:station:WAVCIS:CSI16:1,2010-09-03T12:30:00Z,29.4012,-89.0355,10.0,27.759,11111222 
WAVCIS,ioos:station:WAVCIS:CSI16:1,2010-09-03T12:45:00Z,29.4012,-89.0355,10.0,27.745,11111222 
WAVCIS,ioos:station:WAVCIS:CSI16:1,2010-09-03T13:00:00Z,29.4012,-89.0355,10.0,27.737,11111222 
WAVCIS,ioos:station:WAVCIS:CSI16:1,2010-09-03T13:15:00Z,29.4012,-89.0355,10.0,27.76,11111222 
WAVCIS,ioos:station:WAVCIS:CSI16:1,2010-09-03T13:30:00Z,29.4012,-89.0355,10.0,27.752,11111222 
WAVCIS,ioos:station:WAVCIS:CSI16:1,2010-09-03T13:45:00Z,29.4012,-89.0355,10.0,27.752,11111222 
WAVCIS,ioos:station:WAVCIS:CSI16:1,2010-09-03T14:00:00Z,29.4012,-89.0355,10.0,27.83,11111222 
WAVCIS,ioos:station:WAVCIS:CSI16:1,2010-09-03T14:15:00Z,29.4012,-89.0355,10.0,27.974,11111222 
WAVCIS,ioos:station:WAVCIS:CSI16:1,2010-09-03T14:30:00Z,29.4012,-89.0355,10.0,28.107,11111222 
WAVCIS,ioos:station:WAVCIS:CSI16:1,2010-09-03T14:45:00Z,29.4012,-89.0355,10.0,28.187,11111222 